Year,Month,Day,Hour,Minute,Value (Times are PST for insolation in W/m^2)
2016,08,05,00,00,0.00
2016,08,05,00,01,0.00
2016,08,05,00,02,0.00
2016,08,05,00,03,0.00
2016,08,05,00,04,0.00
2016,08,05,00,05,0.00
2016,08,05,00,06,0.00
2016,08,05,00,07,0.00
2016,08,05,00,08,0.00
2016,08,05,00,09,0.00
2016,08,05,00,10,0.00
2016,08,05,00,11,0.00
2016,08,05,00,12,0.00
2016,08,05,00,13,0.00
2016,08,05,00,14,0.00
2016,08,05,00,15,0.00
2016,08,05,00,16,0.00
2016,08,05,00,17,0.00
2016,08,05,00,18,0.00
2016,08,05,00,19,0.00
2016,08,05,00,20,0.00
2016,08,05,00,21,0.00
2016,08,05,00,22,0.00
2016,08,05,00,23,0.00
2016,08,05,00,24,0.00
2016,08,05,00,25,0.00
2016,08,05,00,26,0.00
2016,08,05,00,27,0.00
2016,08,05,00,28,0.00
2016,08,05,00,29,0.00
2016,08,05,00,30,0.00
2016,08,05,00,31,0.00
2016,08,05,00,32,0.00
2016,08,05,00,33,0.00
2016,08,05,00,34,0.00
2016,08,05,00,35,0.00
2016,08,05,00,36,0.00
2016,08,05,00,37,0.00
2016,08,05,00,38,0.00
2016,08,05,00,39,0.00
2016,08,05,00,40,0.00
2016,08,05,00,41,0.00
2016,08,05,00,42,0.00
2016,08,05,00,43,0.00
2016,08,05,00,44,0.00
2016,08,05,00,45,0.00
2016,08,05,00,46,0.00
2016,08,05,00,47,0.00
2016,08,05,00,48,0.00
2016,08,05,00,49,0.00
2016,08,05,00,50,0.00
2016,08,05,00,51,0.00
2016,08,05,00,52,0.00
2016,08,05,00,53,0.00
2016,08,05,00,54,0.00
2016,08,05,00,55,0.00
2016,08,05,00,56,0.00
2016,08,05,00,57,0.00
2016,08,05,00,58,0.00
2016,08,05,00,59,0.00
2016,08,05,01,00,0.00
2016,08,05,01,01,0.00
2016,08,05,01,02,0.00
2016,08,05,01,03,0.00
2016,08,05,01,04,0.00
2016,08,05,01,05,0.00
2016,08,05,01,06,0.00
2016,08,05,01,07,0.00
2016,08,05,01,08,0.00
2016,08,05,01,09,0.00
2016,08,05,01,10,0.00
2016,08,05,01,11,0.00
2016,08,05,01,12,0.00
2016,08,05,01,13,0.00
2016,08,05,01,14,0.00
2016,08,05,01,15,0.00
2016,08,05,01,16,0.00
2016,08,05,01,17,0.00
2016,08,05,01,18,0.00
2016,08,05,01,19,0.00
2016,08,05,01,20,0.00
2016,08,05,01,21,0.00
2016,08,05,01,22,0.00
2016,08,05,01,23,0.00
2016,08,05,01,24,0.00
2016,08,05,01,25,0.00
2016,08,05,01,26,0.00
2016,08,05,01,27,0.00
2016,08,05,01,28,0.00
2016,08,05,01,29,0.00
2016,08,05,01,30,0.00
2016,08,05,01,31,0.00
2016,08,05,01,32,0.00
2016,08,05,01,33,0.00
2016,08,05,01,34,0.00
2016,08,05,01,35,0.00
2016,08,05,01,36,0.00
2016,08,05,01,37,0.00
2016,08,05,01,38,0.00
2016,08,05,01,39,0.00
2016,08,05,01,40,0.00
2016,08,05,01,41,0.00
2016,08,05,01,42,0.00
2016,08,05,01,43,0.00
2016,08,05,01,44,0.00
2016,08,05,01,45,0.00
2016,08,05,01,46,0.00
2016,08,05,01,47,0.00
2016,08,05,01,48,0.00
2016,08,05,01,49,0.00
2016,08,05,01,50,0.00
2016,08,05,01,51,0.00
2016,08,05,01,52,0.00
2016,08,05,01,53,0.00
2016,08,05,01,54,0.00
2016,08,05,01,55,0.00
2016,08,05,01,56,0.00
2016,08,05,01,57,0.00
2016,08,05,01,58,0.00
2016,08,05,01,59,0.00
2016,08,05,02,00,0.00
2016,08,05,02,01,0.00
2016,08,05,02,02,0.00
2016,08,05,02,03,0.00
2016,08,05,02,04,0.00
2016,08,05,02,05,0.00
2016,08,05,02,06,0.00
2016,08,05,02,07,0.00
2016,08,05,02,08,0.00
2016,08,05,02,09,0.00
2016,08,05,02,10,0.00
2016,08,05,02,11,0.00
2016,08,05,02,12,0.00
2016,08,05,02,13,0.00
2016,08,05,02,14,0.00
2016,08,05,02,15,0.00
2016,08,05,02,16,0.00
2016,08,05,02,17,0.00
2016,08,05,02,18,0.00
2016,08,05,02,19,0.00
2016,08,05,02,20,0.00
2016,08,05,02,21,0.00
2016,08,05,02,22,0.00
2016,08,05,02,23,0.00
2016,08,05,02,24,0.00
2016,08,05,02,25,0.00
2016,08,05,02,26,0.00
2016,08,05,02,27,0.00
2016,08,05,02,28,0.00
2016,08,05,02,29,0.00
2016,08,05,02,30,0.00
2016,08,05,02,31,0.00
2016,08,05,02,32,0.00
2016,08,05,02,33,0.00
2016,08,05,02,34,0.00
2016,08,05,02,35,0.00
2016,08,05,02,36,0.00
2016,08,05,02,37,0.00
2016,08,05,02,38,0.00
2016,08,05,02,39,0.00
2016,08,05,02,40,0.00
2016,08,05,02,41,0.00
2016,08,05,02,42,0.00
2016,08,05,02,43,0.00
2016,08,05,02,44,0.00
2016,08,05,02,45,0.00
2016,08,05,02,46,0.00
2016,08,05,02,47,0.00
2016,08,05,02,48,0.00
2016,08,05,02,49,0.00
2016,08,05,02,50,0.00
2016,08,05,02,51,0.00
2016,08,05,02,52,0.00
2016,08,05,02,53,0.00
2016,08,05,02,54,0.00
2016,08,05,02,55,0.00
2016,08,05,02,56,0.00
2016,08,05,02,57,0.00
2016,08,05,02,58,0.00
2016,08,05,02,59,0.00
2016,08,05,03,00,0.00
2016,08,05,03,01,0.00
2016,08,05,03,02,0.00
2016,08,05,03,06,0.00
2016,08,05,03,07,0.00
2016,08,05,03,08,0.00
2016,08,05,03,09,0.00
2016,08,05,03,10,0.00
2016,08,05,03,11,0.00
2016,08,05,03,12,0.00
2016,08,05,03,13,0.00
2016,08,05,03,14,0.00
2016,08,05,03,15,0.00
2016,08,05,03,16,0.00
2016,08,05,03,17,0.00
2016,08,05,03,18,0.00
2016,08,05,03,19,0.00
2016,08,05,03,20,0.00
2016,08,05,03,21,0.00
2016,08,05,03,22,0.00
2016,08,05,03,23,0.00
2016,08,05,03,24,0.00
2016,08,05,03,25,0.00
2016,08,05,03,26,0.00
2016,08,05,03,27,0.00
2016,08,05,03,28,0.00
2016,08,05,03,29,0.00
2016,08,05,03,30,0.00
2016,08,05,03,31,0.00
2016,08,05,03,32,0.00
2016,08,05,03,33,0.00
2016,08,05,03,34,0.00
2016,08,05,03,35,0.00
2016,08,05,03,36,0.00
2016,08,05,03,37,0.00
2016,08,05,03,38,0.00
2016,08,05,03,39,0.00
2016,08,05,03,40,0.00
2016,08,05,03,41,0.00
2016,08,05,03,42,0.00
2016,08,05,03,43,0.00
2016,08,05,03,44,0.00
2016,08,05,03,45,0.00
2016,08,05,03,46,0.00
2016,08,05,03,47,0.00
2016,08,05,03,48,0.00
2016,08,05,03,49,0.00
2016,08,05,03,50,0.00
2016,08,05,03,51,0.00
2016,08,05,03,52,0.00
2016,08,05,03,53,0.00
2016,08,05,03,54,0.00
2016,08,05,03,55,0.00
2016,08,05,03,56,0.00
2016,08,05,03,57,0.00
2016,08,05,03,58,0.00
2016,08,05,03,59,0.00
2016,08,05,04,00,0.00
2016,08,05,04,01,0.00
2016,08,05,04,02,0.00
2016,08,05,04,03,0.00
2016,08,05,04,04,0.00
2016,08,05,04,05,0.00
2016,08,05,04,06,0.00
2016,08,05,04,07,0.00
2016,08,05,04,08,0.00
2016,08,05,04,09,0.00
2016,08,05,04,10,0.00
2016,08,05,04,11,0.00
2016,08,05,04,12,0.00
2016,08,05,04,13,0.00
2016,08,05,04,14,0.00
2016,08,05,04,15,0.00
2016,08,05,04,16,0.00
2016,08,05,04,17,0.00
2016,08,05,04,18,0.00
2016,08,05,04,19,0.00
2016,08,05,04,20,0.00
2016,08,05,04,21,0.00
2016,08,05,04,22,0.00
2016,08,05,04,23,0.00
2016,08,05,04,24,0.00
2016,08,05,04,25,0.00
2016,08,05,04,26,0.00
2016,08,05,04,27,0.00
2016,08,05,04,28,0.00
2016,08,05,04,29,0.00
2016,08,05,04,30,0.00
2016,08,05,04,31,0.00
2016,08,05,04,32,0.00
2016,08,05,04,33,0.00
2016,08,05,04,34,0.00
2016,08,05,04,35,0.00
2016,08,05,04,36,0.00
2016,08,05,04,37,0.00
2016,08,05,04,38,0.00
2016,08,05,04,39,0.00
2016,08,05,04,40,0.00
2016,08,05,04,41,0.00
2016,08,05,04,42,0.00
2016,08,05,04,43,0.00
2016,08,05,04,44,0.00
2016,08,05,04,45,0.00
2016,08,05,04,46,0.00
2016,08,05,04,47,0.00
2016,08,05,04,48,0.00
2016,08,05,04,49,0.00
2016,08,05,04,50,0.00
2016,08,05,04,51,0.00
2016,08,05,04,52,0.00
2016,08,05,04,53,0.00
2016,08,05,04,54,0.00
2016,08,05,04,55,0.00
2016,08,05,04,56,0.00
2016,08,05,04,57,0.00
2016,08,05,04,58,0.00
2016,08,05,04,59,0.00
2016,08,05,05,00,0.00
2016,08,05,05,01,0.00
2016,08,05,05,02,0.00
2016,08,05,05,03,0.00
2016,08,05,05,04,0.00
2016,08,05,05,05,0.00
2016,08,05,05,06,0.00
2016,08,05,05,07,0.00
2016,08,05,05,08,0.00
2016,08,05,05,09,0.00
2016,08,05,05,10,0.00
2016,08,05,05,11,0.00
2016,08,05,05,12,0.00
2016,08,05,05,13,0.00
2016,08,05,05,14,0.00
2016,08,05,05,15,0.00
2016,08,05,05,16,0.00
2016,08,05,05,17,0.00
2016,08,05,05,18,0.00
2016,08,05,05,19,0.00
2016,08,05,05,20,0.00
2016,08,05,05,21,0.00
2016,08,05,05,22,0.00
2016,08,05,05,23,0.00
2016,08,05,05,24,0.00
2016,08,05,05,25,0.00
2016,08,05,05,26,0.00
2016,08,05,05,27,0.00
2016,08,05,05,28,0.00
2016,08,05,05,29,0.00
2016,08,05,05,30,0.00
2016,08,05,05,31,0.00
2016,08,05,05,32,0.00
2016,08,05,05,33,0.00
2016,08,05,05,34,0.00
2016,08,05,05,35,0.00
2016,08,05,05,36,0.00
2016,08,05,05,37,0.00
2016,08,05,05,38,0.00
2016,08,05,05,39,0.00
2016,08,05,05,40,0.00
2016,08,05,05,41,0.00
2016,08,05,05,42,0.00
2016,08,05,05,43,0.00
2016,08,05,05,44,0.00
2016,08,05,05,45,0.00
2016,08,05,05,46,0.00
2016,08,05,05,47,0.00
2016,08,05,05,48,0.00
2016,08,05,05,49,0.00
2016,08,05,05,50,0.00
2016,08,05,05,51,0.00
2016,08,05,05,52,0.00
2016,08,05,05,53,0.00
2016,08,05,05,54,0.00
2016,08,05,05,55,0.00
2016,08,05,05,56,0.00
2016,08,05,05,57,0.00
2016,08,05,05,58,0.00
2016,08,05,05,59,0.00
2016,08,05,06,00,0.00
2016,08,05,06,01,0.00
2016,08,05,06,02,1.30
2016,08,05,06,03,5.00
2016,08,05,06,04,5.00
2016,08,05,06,05,5.00
2016,08,05,06,06,6.10
2016,08,05,06,07,7.00
2016,08,05,06,08,7.00
2016,08,05,06,09,7.00
2016,08,05,06,10,7.00
2016,08,05,06,11,8.80
2016,08,05,06,12,9.00
2016,08,05,06,13,9.00
2016,08,05,06,14,9.30
2016,08,05,06,15,11.00
2016,08,05,06,16,11.00
2016,08,05,06,17,11.00
2016,08,05,06,18,11.00
2016,08,05,06,19,11.40
2016,08,05,06,20,12.00
2016,08,05,06,21,12.00
2016,08,05,06,22,12.00
2016,08,05,06,23,12.00
2016,08,05,06,24,13.50
2016,08,05,06,25,14.00
2016,08,05,06,26,15.80
2016,08,05,06,27,16.00
2016,08,05,06,28,18.00
2016,08,05,06,29,18.10
2016,08,05,06,30,19.00
2016,08,05,06,31,19.00
2016,08,05,06,32,19.00
2016,08,05,06,33,19.80
2016,08,05,06,34,21.00
2016,08,05,06,35,22.00
2016,08,05,06,36,24.10
2016,08,05,06,37,25.60
2016,08,05,06,38,28.70
2016,08,05,06,39,32.30
2016,08,05,06,40,36.30
2016,08,05,06,41,39.70
2016,08,05,06,42,43.80
2016,08,05,06,43,46.10
2016,08,05,06,44,47.00
2016,08,05,06,45,46.80
2016,08,05,06,46,46.00
2016,08,05,06,47,45.30
2016,08,05,06,48,43.20
2016,08,05,06,49,41.10
2016,08,05,06,50,40.00
2016,08,05,06,51,39.40
2016,08,05,06,52,39.00
2016,08,05,06,53,39.00
2016,08,05,06,54,39.80
2016,08,05,06,55,41.60
2016,08,05,06,56,43.80
2016,08,05,06,57,45.90
2016,08,05,06,58,46.00
2016,08,05,06,59,47.00
2016,08,05,07,00,47.00
2016,08,05,07,01,47.50
2016,08,05,07,02,49.00
2016,08,05,07,03,49.00
2016,08,05,07,04,49.00
2016,08,05,07,05,49.00
2016,08,05,07,06,49.00
2016,08,05,07,07,49.00
2016,08,05,07,08,49.00
2016,08,05,07,09,50.50
2016,08,05,07,10,52.70
2016,08,05,07,11,53.00
2016,08,05,07,12,54.00
2016,08,05,07,13,56.10
2016,08,05,07,14,58.00
2016,08,05,07,15,58.40
2016,08,05,07,16,60.00
2016,08,05,07,17,60.00
2016,08,05,07,18,60.00
2016,08,05,07,19,59.10
2016,08,05,07,20,57.00
2016,08,05,07,21,54.30
2016,08,05,07,22,50.50
2016,08,05,07,23,47.60
2016,08,05,07,24,44.70
2016,08,05,07,25,42.40
2016,08,05,07,26,45.50
2016,08,05,07,27,46.00
2016,08,05,07,28,139.50
2016,08,05,07,29,114.50
2016,08,05,07,30,150.70
2016,08,05,07,31,158.50
2016,08,05,07,32,160.00
2016,08,05,07,33,162.70
2016,08,05,07,34,168.70
2016,08,05,07,35,171.50
2016,08,05,07,36,174.30
2016,08,05,07,37,177.20
2016,08,05,07,38,178.70
2016,08,05,07,39,179.00
2016,08,05,07,40,163.60
2016,08,05,07,41,164.50
2016,08,05,07,42,165.00
2016,08,05,07,43,45.80
2016,08,05,07,44,41.70
2016,08,05,07,45,46.50
2016,08,05,07,46,93.80
2016,08,05,07,47,160.00
2016,08,05,07,48,160.40
2016,08,05,07,49,133.70
2016,08,05,07,50,96.00
2016,08,05,07,51,60.00
2016,08,05,07,52,162.10
2016,08,05,07,53,225.00
2016,08,05,07,54,226.50
2016,08,05,07,55,229.40
2016,08,05,07,56,233.50
2016,08,05,07,57,236.90
2016,08,05,07,58,239.10
2016,08,05,07,59,240.60
2016,08,05,08,00,239.00
2016,08,05,08,01,248.00
2016,08,05,08,02,235.60
2016,08,05,08,03,209.00
2016,08,05,08,04,151.10
2016,08,05,08,05,74.00
2016,08,05,08,06,107.10
2016,08,05,08,07,123.60
2016,08,05,08,08,170.50
2016,08,05,08,09,136.30
2016,08,05,08,10,79.10
2016,08,05,08,11,71.70
2016,08,05,08,12,69.10
2016,08,05,08,13,70.30
2016,08,05,08,14,76.10
2016,08,05,08,15,77.00
2016,08,05,08,16,77.00
2016,08,05,08,17,81.10
2016,08,05,08,18,87.70
2016,08,05,08,19,82.70
2016,08,05,08,20,88.00
2016,08,05,08,21,105.90
2016,08,05,08,22,103.50
2016,08,05,08,23,93.00
2016,08,05,08,24,91.00
2016,08,05,08,25,92.60
2016,08,05,08,26,91.30
2016,08,05,08,27,91.00
2016,08,05,08,28,89.80
2016,08,05,08,29,85.70
2016,08,05,08,30,84.40
2016,08,05,08,31,97.70
2016,08,05,08,32,133.00
2016,08,05,08,33,136.40
2016,08,05,08,34,151.00
2016,08,05,08,35,250.50
2016,08,05,08,36,348.90
2016,08,05,08,37,349.20
2016,08,05,08,38,350.00
2016,08,05,08,39,352.20
2016,08,05,08,40,354.60
2016,08,05,08,41,356.70
2016,08,05,08,42,357.00
2016,08,05,08,43,359.10
2016,08,05,08,44,362.00
2016,08,05,08,45,362.00
2016,08,05,08,46,362.50
2016,08,05,08,47,364.90
2016,08,05,08,48,367.70
2016,08,05,08,49,370.70
2016,08,05,08,50,373.50
2016,08,05,08,51,376.40
2016,08,05,08,52,378.00
2016,08,05,08,53,379.30
2016,08,05,08,54,382.20
2016,08,05,08,55,386.20
2016,08,05,08,56,389.60
2016,08,05,08,57,391.80
2016,08,05,08,58,394.10
2016,08,05,08,59,397.20
2016,08,05,09,00,399.40
2016,08,05,09,01,401.80
2016,08,05,09,02,404.60
2016,08,05,09,03,407.90
2016,08,05,09,04,413.60
2016,08,05,09,05,419.50
2016,08,05,09,06,427.10
2016,08,05,09,07,436.00
2016,08,05,09,08,449.20
2016,08,05,09,09,460.10
2016,08,05,09,10,465.20
2016,08,05,09,11,468.60
2016,08,05,09,12,474.70
2016,08,05,09,13,480.20
2016,08,05,09,14,485.90
2016,08,05,09,15,494.90
2016,08,05,09,16,500.70
2016,08,05,09,17,507.70
2016,08,05,09,18,514.90
2016,08,05,09,19,523.20
2016,08,05,09,20,530.30
2016,08,05,09,21,529.60
2016,08,05,09,22,523.50
2016,08,05,09,23,543.30
2016,08,05,09,24,560.50
2016,08,05,09,25,499.90
2016,08,05,09,26,560.40
2016,08,05,09,27,568.50
2016,08,05,09,28,572.70
2016,08,05,09,29,489.50
2016,08,05,09,30,517.30
2016,08,05,09,31,537.00
2016,08,05,09,32,522.60
2016,08,05,09,33,519.00
2016,08,05,09,34,521.20
2016,08,05,09,35,527.30
2016,08,05,09,36,535.00
2016,08,05,09,37,539.90
2016,08,05,09,38,545.00
2016,08,05,09,39,505.50
2016,08,05,09,40,553.10
2016,08,05,09,41,581.70
2016,08,05,09,42,603.00
2016,08,05,09,43,605.00
2016,08,05,09,44,605.00
2016,08,05,09,45,559.50
2016,08,05,09,46,337.90
2016,08,05,09,47,294.40
2016,08,05,09,48,318.00
2016,08,05,09,49,317.80
2016,08,05,09,50,332.00
2016,08,05,09,51,332.00
2016,08,05,09,52,332.00
2016,08,05,09,53,477.30
2016,08,05,09,54,523.10
2016,08,05,09,55,574.50
2016,08,05,09,56,589.00
2016,08,05,09,57,398.10
2016,08,05,09,58,366.50
2016,08,05,09,59,360.10
2016,08,05,10,00,326.60
2016,08,05,10,01,363.80
2016,08,05,10,02,408.70
2016,08,05,10,03,360.60
2016,08,05,10,04,374.00
2016,08,05,10,05,374.00
2016,08,05,10,06,399.10
2016,08,05,10,07,420.80
2016,08,05,10,08,397.60
2016,08,05,10,09,377.30
2016,08,05,10,10,346.70
2016,08,05,10,11,339.00
2016,08,05,10,12,477.40
2016,08,05,10,13,467.20
2016,08,05,10,14,449.00
2016,08,05,10,15,296.00
2016,08,05,10,16,334.00
2016,08,05,10,17,431.40
2016,08,05,10,18,674.30
2016,08,05,10,19,673.00
2016,08,05,10,20,673.00
2016,08,05,10,21,673.00
2016,08,05,10,22,640.80
2016,08,05,10,23,631.00
2016,08,05,10,24,633.80
2016,08,05,10,25,642.60
2016,08,05,10,26,640.80
2016,08,05,10,27,661.80
2016,08,05,10,28,566.00
2016,08,05,10,29,566.00
2016,08,05,10,30,587.10
2016,08,05,10,31,665.60
2016,08,05,10,32,643.40
2016,08,05,10,33,685.00
2016,08,05,10,34,697.70
2016,08,05,10,35,698.70
2016,08,05,10,36,715.40
2016,08,05,10,37,728.30
2016,08,05,10,38,729.70
2016,08,05,10,39,741.90
2016,08,05,10,40,747.00
2016,08,05,10,41,756.30
2016,08,05,10,42,777.90
2016,08,05,10,43,780.00
2016,08,05,10,44,780.00
2016,08,05,10,45,780.00
2016,08,05,10,46,780.00
2016,08,05,10,47,780.00
2016,08,05,10,48,780.00
2016,08,05,10,49,572.20
2016,08,05,10,50,282.50
2016,08,05,10,51,305.00
2016,08,05,10,52,323.30
2016,08,05,10,53,347.70
2016,08,05,10,54,394.10
2016,08,05,10,55,363.50
2016,08,05,10,56,342.70
2016,08,05,10,57,334.70
2016,08,05,10,58,338.90
2016,08,05,10,59,337.80
2016,08,05,11,00,309.00
2016,08,05,11,01,310.70
2016,08,05,11,02,337.70
2016,08,05,11,03,394.30
2016,08,05,11,04,399.00
2016,08,05,11,05,399.00
2016,08,05,11,06,339.30
2016,08,05,11,07,278.50
2016,08,05,11,08,262.80
2016,08,05,11,09,255.90
2016,08,05,11,10,257.30
2016,08,05,11,11,264.00
2016,08,05,11,12,273.10
2016,08,05,11,13,288.10
2016,08,05,11,14,304.90
2016,08,05,11,15,313.00
2016,08,05,11,16,311.90
2016,08,05,11,17,306.30
2016,08,05,11,18,301.70
2016,08,05,11,19,302.20
2016,08,05,11,20,296.40
2016,08,05,11,21,277.00
2016,08,05,11,22,259.90
2016,08,05,11,23,252.30
2016,08,05,11,24,250.30
2016,08,05,11,25,240.00
2016,08,05,11,26,208.90
2016,08,05,11,27,181.40
2016,08,05,11,28,158.00
2016,08,05,11,29,135.60
2016,08,05,11,30,123.00
2016,08,05,11,31,125.50
2016,08,05,11,32,138.00
2016,08,05,11,33,150.80
2016,08,05,11,34,159.70
2016,08,05,11,35,175.00
2016,08,05,11,36,217.40
2016,08,05,11,37,209.90
2016,08,05,11,38,185.00
2016,08,05,11,39,185.00
2016,08,05,11,40,185.00
2016,08,05,11,41,185.00
2016,08,05,11,42,421.10
2016,08,05,11,43,446.00
2016,08,05,11,44,446.00
2016,08,05,11,45,500.30
2016,08,05,11,46,826.00
2016,08,05,11,47,826.00
2016,08,05,11,48,596.30
2016,08,05,11,49,153.80
2016,08,05,11,50,178.00
2016,08,05,11,51,289.60
2016,08,05,11,52,381.00
2016,08,05,11,53,381.00
2016,08,05,11,54,681.70
2016,08,05,11,55,789.60
2016,08,05,11,56,775.00
2016,08,05,11,57,770.30
2016,08,05,11,58,770.00
2016,08,05,11,59,770.50
2016,08,05,12,00,776.30
2016,08,05,12,01,787.80
2016,08,05,12,02,806.00
2016,08,05,12,03,800.30
2016,08,05,12,04,761.10
2016,08,05,12,05,756.40
2016,08,05,12,06,771.00
2016,08,05,12,07,772.60
2016,08,05,12,08,774.30
2016,08,05,12,09,777.90
2016,08,05,12,10,781.30
2016,08,05,12,11,786.90
2016,08,05,12,12,788.90
2016,08,05,12,13,790.90
2016,08,05,12,14,791.00
2016,08,05,12,15,791.00
2016,08,05,12,16,795.20
2016,08,05,12,17,827.10
2016,08,05,12,18,854.00
2016,08,05,12,19,854.00
2016,08,05,12,20,848.50
2016,08,05,12,21,842.00
2016,08,05,12,22,842.00
2016,08,05,12,23,842.00
2016,08,05,12,24,842.00
2016,08,05,12,25,414.60
2016,08,05,12,26,281.00
2016,08,05,12,27,281.00
2016,08,05,12,28,281.00
2016,08,05,12,29,158.50
2016,08,05,12,30,163.00
2016,08,05,12,31,163.00
2016,08,05,12,32,163.00
2016,08,05,12,33,163.00
2016,08,05,12,34,163.00
2016,08,05,12,35,480.30
2016,08,05,12,36,861.00
2016,08,05,12,37,644.40
2016,08,05,12,38,482.00
2016,08,05,12,39,482.00
2016,08,05,12,40,808.90
2016,08,05,12,41,905.00
2016,08,05,12,42,905.00
2016,08,05,12,43,895.50
2016,08,05,12,44,895.00
2016,08,05,12,45,895.70
2016,08,05,12,46,900.40
2016,08,05,12,47,881.30
2016,08,05,12,48,850.70
2016,08,05,12,49,897.30
2016,08,05,12,50,892.10
2016,08,05,12,51,890.00
2016,08,05,12,52,888.40
2016,08,05,12,53,884.20
2016,08,05,12,54,881.30
2016,08,05,12,55,884.80
2016,08,05,12,56,899.10
2016,08,05,12,57,885.70
2016,08,05,12,58,877.30
2016,08,05,12,59,875.40
2016,08,05,13,00,879.00
2016,08,05,13,01,879.00
2016,08,05,13,02,876.90
2016,08,05,13,03,867.00
2016,08,05,13,04,859.10
2016,08,05,13,05,853.70
2016,08,05,13,06,848.40
2016,08,05,13,07,843.70
2016,08,05,13,08,842.00
2016,08,05,13,09,842.00
2016,08,05,13,10,842.00
2016,08,05,13,11,840.40
2016,08,05,13,12,840.00
2016,08,05,13,13,835.20
2016,08,05,13,14,831.00
2016,08,05,13,15,831.30
2016,08,05,13,16,833.00
2016,08,05,13,17,834.00
2016,08,05,13,18,837.00
2016,08,05,13,19,837.00
2016,08,05,13,20,837.00
2016,08,05,13,21,836.00
2016,08,05,13,22,835.00
2016,08,05,13,23,836.20
2016,08,05,13,24,837.70
2016,08,05,13,25,837.20
2016,08,05,13,26,837.80
2016,08,05,13,27,838.00
2016,08,05,13,28,838.00
2016,08,05,13,29,837.90
2016,08,05,13,30,837.00
2016,08,05,13,31,837.00
2016,08,05,13,32,836.40
2016,08,05,13,33,835.70
2016,08,05,13,34,837.00
2016,08,05,13,35,837.00
2016,08,05,13,36,837.00
2016,08,05,13,37,837.00
2016,08,05,13,38,837.00
2016,08,05,13,39,835.60
2016,08,05,13,40,836.50
2016,08,05,13,41,837.00
2016,08,05,13,42,837.90
2016,08,05,13,43,837.00
2016,08,05,13,44,837.10
2016,08,05,13,45,838.00
2016,08,05,13,46,838.00
2016,08,05,13,47,837.80
2016,08,05,13,48,837.30
2016,08,05,13,49,837.60
2016,08,05,13,50,837.40
2016,08,05,13,51,839.00
2016,08,05,13,52,842.20
2016,08,05,13,53,844.00
2016,08,05,13,54,845.40
2016,08,05,13,55,846.00
2016,08,05,13,56,846.00
2016,08,05,13,57,846.00
2016,08,05,13,58,844.10
2016,08,05,13,59,841.80
2016,08,05,14,00,839.70
2016,08,05,14,01,837.80
2016,08,05,14,02,837.90
2016,08,05,14,03,839.30
2016,08,05,14,04,836.10
2016,08,05,14,05,832.10
2016,08,05,14,06,831.00
2016,08,05,14,07,831.00
2016,08,05,14,08,830.40
2016,08,05,14,09,830.00
2016,08,05,14,10,830.00
2016,08,05,14,11,826.70
2016,08,05,14,12,826.00
2016,08,05,14,13,823.10
2016,08,05,14,14,823.90
2016,08,05,14,15,821.00
2016,08,05,14,16,821.00
2016,08,05,14,17,820.00
2016,08,05,14,18,816.70
2016,08,05,14,19,816.00
2016,08,05,14,20,816.00
2016,08,05,14,21,813.90
2016,08,05,14,22,813.10
2016,08,05,14,23,812.80
2016,08,05,14,24,810.70
2016,08,05,14,25,807.70
2016,08,05,14,26,807.00
2016,08,05,14,27,805.30
2016,08,05,14,28,805.00
2016,08,05,14,29,803.00
2016,08,05,14,30,803.00
2016,08,05,14,31,803.00
2016,08,05,14,32,802.80
2016,08,05,14,33,802.00
2016,08,05,14,34,802.00
2016,08,05,14,35,801.10
2016,08,05,14,36,799.00
2016,08,05,14,37,798.00
2016,08,05,14,38,796.80
2016,08,05,14,39,795.30
2016,08,05,14,40,795.00
2016,08,05,14,41,795.00
2016,08,05,14,42,795.90
2016,08,05,14,43,796.00
2016,08,05,14,44,793.10
2016,08,05,14,45,795.00
2016,08,05,14,46,795.20
2016,08,05,14,47,795.80
2016,08,05,14,48,793.70
2016,08,05,14,49,791.80
2016,08,05,14,50,792.10
2016,08,05,14,51,791.00
2016,08,05,14,52,792.10
2016,08,05,14,53,790.50
2016,08,05,14,54,789.00
2016,08,05,14,55,789.00
2016,08,05,14,56,789.00
2016,08,05,14,57,784.70
2016,08,05,14,58,784.00
2016,08,05,14,59,782.10
2016,08,05,15,00,783.50
2016,08,05,15,01,780.00
2016,08,05,15,02,780.50
2016,08,05,15,03,781.00
2016,08,05,15,04,778.20
2016,08,05,15,05,776.10
2016,08,05,15,06,774.00
2016,08,05,15,07,772.40
2016,08,05,15,08,770.80
2016,08,05,15,09,770.00
2016,08,05,15,10,770.00
2016,08,05,15,11,768.40
2016,08,05,15,12,766.30
2016,08,05,15,13,761.20
2016,08,05,15,14,758.00
2016,08,05,15,15,757.80
2016,08,05,15,16,755.30
2016,08,05,15,17,751.80
2016,08,05,15,18,751.00
2016,08,05,15,19,749.50
2016,08,05,15,20,747.90
2016,08,05,15,21,749.00
2016,08,05,15,22,749.00
2016,08,05,15,23,750.20
2016,08,05,15,24,748.30
2016,08,05,15,25,747.00
2016,08,05,15,26,747.00
2016,08,05,15,27,747.00
2016,08,05,15,28,747.00
2016,08,05,15,29,743.90
2016,08,05,15,30,741.70
2016,08,05,15,31,740.00
2016,08,05,15,32,740.00
2016,08,05,15,33,739.40
2016,08,05,15,34,737.60
2016,08,05,15,35,735.30
2016,08,05,15,36,731.10
2016,08,05,15,37,728.50
2016,08,05,15,38,726.80
2016,08,05,15,39,726.00
2016,08,05,15,40,726.00
2016,08,05,15,41,726.00
2016,08,05,15,42,730.30
2016,08,05,15,43,731.00
2016,08,05,15,44,730.90
2016,08,05,15,45,728.90
2016,08,05,15,46,727.60
2016,08,05,15,47,724.80
2016,08,05,15,48,719.70
2016,08,05,15,49,715.90
2016,08,05,15,50,713.20
2016,08,05,15,51,711.00
2016,08,05,15,52,706.20
2016,08,05,15,53,701.80
2016,08,05,15,54,703.90
2016,08,05,15,55,703.50
2016,08,05,15,56,701.40
2016,08,05,15,57,696.70
2016,08,05,15,58,694.20
2016,08,05,15,59,695.90
2016,08,05,16,00,694.30
2016,08,05,16,01,695.60
2016,08,05,16,02,692.30
2016,08,05,16,03,689.00
2016,08,05,16,04,693.40
2016,08,05,16,05,678.10
2016,08,05,16,06,671.30
2016,08,05,16,07,674.50
2016,08,05,16,08,667.70
2016,08,05,16,09,685.30
2016,08,05,16,10,661.80
2016,08,05,16,11,652.00
2016,08,05,16,12,652.00
2016,08,05,16,13,335.60
2016,08,05,16,14,265.00
2016,08,05,16,15,266.90
2016,08,05,16,16,300.90
2016,08,05,16,17,345.30
2016,08,05,16,18,401.00
2016,08,05,16,19,426.30
2016,08,05,16,20,422.00
2016,08,05,16,21,422.00
2016,08,05,16,22,462.90
2016,08,05,16,23,538.50
2016,08,05,16,24,610.00
2016,08,05,16,25,650.50
2016,08,05,16,26,653.00
2016,08,05,16,27,644.30
2016,08,05,16,28,636.60
2016,08,05,16,29,628.80
2016,08,05,16,30,623.70
2016,08,05,16,31,620.30
2016,08,05,16,32,616.00
2016,08,05,16,33,612.70
2016,08,05,16,34,610.50
2016,08,05,16,35,606.70
2016,08,05,16,36,605.00
2016,08,05,16,37,603.90
2016,08,05,16,38,600.50
2016,08,05,16,39,599.00
2016,08,05,16,40,598.30
2016,08,05,16,41,596.40
2016,08,05,16,42,596.00
2016,08,05,16,43,592.40
2016,08,05,16,44,588.90
2016,08,05,16,45,586.80
2016,08,05,16,46,584.80
2016,08,05,16,47,583.00
2016,08,05,16,48,580.00
2016,08,05,16,49,579.30
2016,08,05,16,50,576.70
2016,08,05,16,51,575.00
2016,08,05,16,52,572.80
2016,08,05,16,53,570.40
2016,08,05,16,54,568.70
2016,08,05,16,55,566.50
2016,08,05,16,56,564.40
2016,08,05,16,57,563.20
2016,08,05,16,58,561.20
2016,08,05,16,59,558.90
2016,08,05,17,00,556.80
2016,08,05,17,01,554.90
2016,08,05,17,02,554.00
2016,08,05,17,03,553.40
2016,08,05,17,04,552.00
2016,08,05,17,05,550.30
2016,08,05,17,06,546.60
2016,08,05,17,07,542.30
2016,08,05,17,08,537.50
2016,08,05,17,09,534.70
2016,08,05,17,10,533.30
2016,08,05,17,11,529.80
2016,08,05,17,12,529.00
2016,08,05,17,13,530.80
2016,08,05,17,14,532.60